Location: Dunedin
(45.8670°S, 170.5000°E)
Time: 00:11:59
(UTC+12:00)

SPOT 3 Rocket - Pass Details

Date: 24 January 2019
Orbit: 778 x 795 km, 98.8° (Epoch: 20 April)

Event Time Altitude Azimuth Distance (km) Brightness Sun altitude
Rises 21:56:29 0° 166° (SSE) 3,321 7.1 -6.2°
Reaches altitude 10° 21:58:50 10° 164° (SSE) 2,382 6.3 -6.5°
Maximum altitude 22:04:07 83° 76° (ENE) 805 3.6 -7.3°
Drops below altitude 10° 22:09:18 10° 347° (NNW) 2,342 5.8 -8.0°
Sets 22:11:36 0° 346° (NNW) 3,260 6.5 -8.3°
